Mattoon, IL

4:07 PM CST on November 13, 2019 (GMT -0600)
Coles County Memorial

Weather History for KMTO - September, 2019

Change the Weather History Date:

Sunday, September 1, 2019

  Actual Average Record
Temperature  
Mean Temperature 74 °F 72 °F  
Max Temperature 82 °F 83 °F 100 °F (1953)
Min Temperature 65 °F 60 °F 44 °F (1949)
Degree Days  
Heating Degree Days 0 0  
Month to date heating degree days 0 0  
Since 1 July heating degree days 0 5  
Cooling Degree Days 9 7  
Month to date cooling degree days 9 7  
Year to date cooling degree days 994 927  
Growing Degree Days 22 (Base 50)    
Moisture  
Dew Point 66 °F    
Average Humidity 80    
Maximum Humidity 93    
Minimum Humidity 67    
Precipitation  
Precipitation 0.44 in 0.13 in 1.29 in (1950)
Month to date precipitation 0.44 0.13  
Year to date precipitation 25.57 26.03  
Sea Level Pressure  
Sea Level Pressure 30.09 in    
Wind  
Wind Speed 5 mph (NE)    
Max Wind Speed 16 mph    
Max Gust Speed 20 mph    
Visibility 8 miles    
Events Rain , Thunderstorm    
T = Trace of Precipitation, MM = Missing Value Source: NWS Daily Summary

Daily Weather History Graph

Daily Weather History Graph

Search for Another Location

Airport or City:

Astronomy

Sep. 01, 2019 Rise Set
Actual Time 6:21 AM CDT 7:24 PM CDT
Civil Twilight 5:53 AM CDT 7:51 PM CDT
Nautical Twilight 5:20 AM CDT 8:24 PM CDT
Astronomical Twilight 4:46 AM CDT 8:58 PM CDT
Moon 8:50 AM CDT (9/1) 9:12 PM CDT (9/1)
Length of Visible Light 13h 58m
Length of Day
13h 03m
Waxing Crescent, 8% of the Moon is Illuminated
Sep 1
Waxing Crescent
Sep 5
First Quarter
Sep 13
Full
Sep 21
Last Quarter
Sep 28
New

Hourly Weather History & Observations

Time (CDT) Temp. Heat Index Dew Point Humidity Pressure Visibility Wind Dir Wind Speed Gust Speed Precip Events Conditions
1:53 AM 66.9 °F - 64.9 °F 93% 30.10 in 10.0 mi SE 4.6 mph - N/A   Clear
2:53 AM 66.9 °F - 64.9 °F 93% 30.09 in 10.0 mi ESE 3.5 mph - N/A   Scattered Clouds
3:53 AM 66.9 °F - 64.9 °F 93% 30.07 in 10.0 mi ESE 5.8 mph - 0.00 in   Mostly Cloudy
4:06 AM 66.9 °F - 64.9 °F 93% 30.09 in 10.0 mi SE 5.8 mph - N/A Thunderstorm Mostly Cloudy
4:21 AM 66.9 °F - 64.9 °F 93% 30.08 in 10.0 mi ESE 6.9 mph - N/A   Scattered Clouds
4:42 AM 66.9 °F - 64.9 °F 93% 30.08 in 10.0 mi Calm Calm - N/A Thunderstorm Mostly Cloudy
4:53 AM 66.9 °F - 64.9 °F 93% 30.07 in 10.0 mi ENE 4.6 mph - N/A   Mostly Cloudy
5:53 AM 66.9 °F - 64.9 °F 93% 30.06 in 10.0 mi East 4.6 mph - N/A   Overcast
6:45 AM 66.9 °F - 64.9 °F 93% 30.10 in 9.0 mi NNW 16.1 mph - N/A   Overcast
6:48 AM 66.2 °F - 64.4 °F 94% 30.10 in 8.0 mi NNW 11.5 mph 18.4 mph 0.00 in Rain , Thunderstorm Light Rain
6:53 AM 66.0 °F - 64.0 °F 93% 30.09 in 8.0 mi North 9.2 mph - 0.00 in Rain , Thunderstorm Light Rain
7:06 AM 66.0 °F - 64.0 °F 93% 30.11 in 9.0 mi North 11.5 mph - 0.00 in   Overcast
7:48 AM 66.2 °F - 64.4 °F 94% 30.11 in 5.0 mi NE 5.8 mph - 0.06 in Rain Rain
7:53 AM 66.0 °F - 64.0 °F 93% 30.11 in 5.0 mi ENE 5.8 mph - 0.07 in Rain Rain
8:02 AM 66.0 °F - 64.9 °F 96% 30.12 in 6.0 mi NE 3.5 mph - 0.00 in Rain Light Rain
8:12 AM 66.0 °F - 64.0 °F 93% 30.13 in 5.0 mi Calm Calm - 0.02 in Rain , Thunderstorm Light Thunderstorms and Rain
8:22 AM 66.0 °F - 64.9 °F 96% 30.14 in 1.5 mi Calm Calm - 0.09 in Rain , Thunderstorm Heavy Thunderstorms and Rain
8:27 AM 66.0 °F - 64.9 °F 96% 30.14 in 0.8 mi SSE 3.5 mph - 0.20 in Rain , Thunderstorm Heavy Thunderstorms and Rain
8:36 AM 66.0 °F - 64.9 °F 96% 30.14 in 1.8 mi SSE 3.5 mph - 0.25 in Rain , Thunderstorm Heavy Thunderstorms and Rain
8:53 AM 64.9 °F - 64.9 °F 100% 30.11 in 3.0 mi SSE 10.4 mph - 0.30 in Rain , Thunderstorm Thunderstorms and Rain
9:03 AM 66.0 °F - 64.9 °F 96% 30.13 in 4.0 mi SSE 9.2 mph - 0.03 in Rain , Thunderstorm Thunderstorms and Rain
9:10 AM 66.0 °F - 64.9 °F 96% 30.12 in 4.0 mi SSE 6.9 mph - 0.04 in Rain , Thunderstorm Rain
9:38 AM 66.0 °F - 64.9 °F 96% 30.11 in 6.0 mi SE 8.1 mph - 0.06 in Rain Light Rain
9:53 AM 66.0 °F - 64.9 °F 96% 30.10 in 7.0 mi East 5.8 mph - 0.07 in Rain Light Rain
10:53 AM 69.1 °F - 66.0 °F 90% 30.11 in 10.0 mi North 4.6 mph - 0.00 in   Mostly Cloudy
11:53 AM 73.9 °F - 66.9 °F 79% 30.09 in 10.0 mi ENE 3.5 mph - N/A   Clear
12:53 PM 75.9 °F - 64.9 °F 69% 30.08 in 10.0 mi ENE 4.6 mph - N/A   Mostly Cloudy
1:53 PM 77.0 °F - 68.0 °F 74% 30.07 in 10.0 mi Calm Calm - N/A   Overcast
2:53 PM 80.1 °F 82.7 °F 68.0 °F 67% 30.04 in 10.0 mi Calm Calm - N/A   Mostly Cloudy
3:42 PM 80.1 °F 82.9 °F 69.1 °F 69% 30.06 in 10.0 mi NW 5.8 mph - N/A   Overcast
3:53 PM 79.0 °F - 68.0 °F 69% 30.04 in 10.0 mi NNW 8.1 mph - N/A   Mostly Cloudy
4:32 PM 79.0 °F - 69.1 °F 72% 30.05 in 10.0 mi NW 6.9 mph - N/A   Mostly Cloudy
4:41 PM 79.0 °F - 68.0 °F 69% 30.05 in 10.0 mi NW 6.9 mph - N/A   Mostly Cloudy
4:53 PM 79.0 °F - 68.0 °F 69% 30.04 in 10.0 mi NNW 5.8 mph - N/A   Mostly Cloudy
5:53 PM 79.0 °F - 68.0 °F 69% 30.03 in 10.0 mi NNW 5.8 mph - N/A   Scattered Clouds
6:53 PM 77.0 °F - 68.0 °F 74% 30.03 in 10.0 mi NNW 4.6 mph - N/A   Scattered Clouds
7:53 PM 72.0 °F - 68.0 °F 87% 30.04 in 10.0 mi NNW 5.8 mph - N/A   Clear
8:53 PM 70.0 °F - 66.9 °F 90% 30.05 in 10.0 mi NNW 5.8 mph - N/A   Clear
9:53 PM 69.1 °F - 66.9 °F 93% 30.08 in 10.0 mi NNW 4.6 mph - N/A   Scattered Clouds
10:53 PM 69.1 °F - 66.9 °F 93% 30.08 in 10.0 mi NNW 3.5 mph - N/A   Mostly Cloudy
11:53 PM 66.9 °F - 64.9 °F 93% 30.08 in 7.0 mi Calm Calm - N/A   Clear